Location: *
(46.1006°N, 1.8394°E)
Time: 04:44:00
(UTC+00:00)

FAST - Pass Details

Date: 20 September 2019
Orbit: 346 x 3436 km, 83.0° (Epoch: 19 October)

Event Time Altitude Azimuth Distance (km) Brightness Sun altitude
Rises 19:19:26 0° 188° (S) 2,672 8.7 -15.2°
Reaches altitude 10° 19:21:49 10° 189° (S) 1,560 7.5 -15.6°
Maximum altitude 19:24:55 85° 278° (W) 376 4.5 -16.1°
Drops below altitude 10° 19:27:32 10° 7° (N) 1,318 7.4 -16.5°
Sets 19:29:23 0° 8° (N) 2,196 8.6 -16.8°
